Location: Gamarra
(10.0780°N, 67.4929°W)
Time: 09:26:06
(UTC+00:00)

COSMOS 2406 - Pass Details

Date: 13 April 2024
Orbit: 843 x 863 km, 71.0° (Epoch: 22 May)

Event Time Altitude Azimuth Distance (km) Brightness Sun altitude
Rises 23:12:22 0° 360° (N) 3,425 6.5 -8.5°
Reaches altitude 10° 23:15:05 10° 10° (N) 2,487 5.7 -9.2°
Maximum altitude 23:20:08 32° 72° (ENE) 1,419 3.9 -10.4°
Drops below altitude 10° 23:25:10 10° 135° (SE) 2,477 5.1 -11.6°
Enters shadow 23:25:20 - 136° (SE) 2,535 5.2 -11.7°
